Weather in Bakayevo

Russia / Orenburg Oblast     54°07′28″N   52°24′14″E
temp.,
°C
wind,
m/s
gust,
m/s
humid.,
%
clouds,
%
prec.,
mm/h
press.,
hPa
HPBL,
m
28 february, sun
sun2823:000sw2599100 3.4 998217
02:00−4nw4796100 0.4 998161
05:00−11nw359698 0.4 99996
08:00−9nnw589599 0.1 1000224
11:00−10nnw579499 0.1 1002276
14:00−10nnw589299 0.1 1004377
17:00−10nnw589299 0.1 1007457
20:00−13nnw499499 0.1 1009235
1 march, mon
mon123:00−16nnw349586 0.1 101177
02:00−17nnw339764 0.0 101354
05:00−18nw359777 0.0 101584
08:00−19nnw239778 0.0 101735
11:00−18nnw359339 0.0 1019210
14:00−15nnw349030 0.0 1020313
17:00−15nw459264 0.0 1021344
20:00−21nw229944 0.0 102120
2 march, tue
tue223:00−22w1210039 0.0 102120
02:00−22sw2310056 0.0 102020
05:00−22ssw3510066 0.0 101777
08:00−19s5910099 0.1 1014234
11:00−15s71295100 0.2 1011354
14:00−10ssw81394100 0.9 1008568
17:00−8ssw81394100 2.1 1005672
20:00−6ssw71395100 1.3 1002649
3 march, wed
wed323:00−4ssw61296100 2.3 1000508
02:00−4ssw51096100 0.8 998351
05:00−3wsw4897100 1.2 998283
08:00−5w499697 0.1 998281
11:00−4nw579398 0.2 1000526
14:00−3nw5791100 0.1 1001550
17:00−3nw5792100 0.1 1002592
20:00−5nw5893100 0.1 1003495
4 march, thu
thu423:00−7wnw4894100 0.1 1006186
02:00−8nw499699 0.0 1006212
05:00−9nw489691 0.1 1008166
08:00−13nw479787 0.0 1010132
11:00−11wnw479577 0.1 1012255
14:00−7w589271 0.0 1012427
17:00−7sw6109182 0.0 1011592
20:00−8sw71494100 0.1 1009550